[[{"header":{"parameterUnit":"m.s-1","parameterCategory":1,"la1":30.2991,"la2":30.254,"lo1":-89.0895,"lo2":-89.0444,"dy":0.0017,"dx":0.0017,"nx":28,"ny":28,"refTime":"2025-04-12T09:00:00:Z","depth":0,"parameterNumber":2,"parameterNumberName":"U-component_of_WINDS"},"data":[0,0,0,0,0,0,0,0,0,0,0,0,0,0,0,0,0,0,0,0,0,0,0,0,0,0,0,0,0,0,0,0,0,0,0,0,0,0,0,0,0,0,0,0,0,0,0,0,0,0,0,0,0,0,0,0,0,0,-0.5565,-0.5564,0,-0.5468,-0.5467,-0.5466,-0.5416,-0.5416,-0.5415,-0.5415,-0.5318,-0.5315,-0.5313,0,0,0,0,0,0,0,0,0,0,0,0,0,-0.5708,-0.5705,-0.5565,-0.5564,-0.5562,-0.5468,-0.5467,-0.5466,-0.5416,-0.5416,-0.5415,-0.5415,-0.5318,-0.5315,-0.5312,0,0,0,0,0,0,0,0,0,0,0,0,0,-0.5632,-0.5704,-0.5565,-0.5526,-0.5522,-0.5469,-0.5467,-0.5465,-0.5416,-0.5416,-0.5415,-0.5415,-0.5319,-0.5316,-0.5312,-0.5291,0,0,-0.53,-0.5299,0,0,0,0,0,0,0,0,-0.5636,-0.5627,-0.5533,-0.5529,-0.5524,-0.5454,-0.5481,-0.5407,-0.5416,-0.5456,-0.5415,-0.5415,-0.5363,-0.5356,-0.5338,-0.5286,-0.5282,-0.53,-0.5298,-0.5296,-0.5295,0,0,0,0,0,0,0,-0.5642,-0.5631,-0.5527,-0.5532,-0.5526,-0.5514,-0.5503,-0.5467,-0.5411,-0.5452,-0.5449,-0.5438,-0.536,-0.5342,-0.5335,-0.528,-0.53,-0.5297,-0.5294,-0.5293,-0.5206,-0.5206,0,0,0,0,0,0,-0.5653,-0.5635,-0.553,-0.5524,-0.5581,-0.5511,-0.5499,-0.5476,-0.5412,-0.5402,-0.5438,-0.5436,-0.5348,-0.534,-0.5331,-0.5302,-0.5296,-0.5292,-0.529,-0.5206,-0.5206,-0.5206,0,0,0,0,0,0,-0.5656,-0.5644,-0.5534,-0.5578,-0.5563,-0.5509,-0.5484,-0.5474,-0.5455,-0.5401,-0.5391,-0.5429,-0.5348,-0.5337,-0.5301,-0.5298,-0.5291,-0.5287,-0.5206,-0.5206,-0.5206,-0.5242,0,0,0,0,0,0,-0.566,-0.5645,-0.5636,-0.5579,-0.5561,-0.5504,-0.5484,-0.5473,-0.5449,-0.5445,-0.5389,-0.538,-0.5347,-0.5307,-0.5297,-0.5292,-0.5284,-0.5206,-0.5206,-0.5206,-0.5241,-0.5244,-0.5246,0,0,0,0,0,-0.5666,-0.5651,-0.5636,-0.5624,-0.5549,-0.5504,-0.5494,-0.5456,-0.5449,-0.5439,-0.5404,-0.5382,-0.53,-0.5304,-0.5292,-0.5286,-0.5206,-0.5206,-0.5206,-0.524,-0.5243,-0.5246,0,0,0,0,0,0,-0.571,-0.5643,-0.5626,-0.5592,-0.5554,-0.5496,-0.5483,-0.5461,-0.5425,-0.5423,-0.5377,-0.5365,-0.5333,-0.5306,-0.5312,-0.5262,-0.5251,-0.5248,-0.5281,-0.5283,-0.5285,-0.5292,-0.5281,0,0,0,0,0,-0.5716,-0.5685,-0.5628,-0.5604,-0.5586,-0.5538,-0.5517,-0.5491,-0.545,-0.5434,-0.5396,-0.5358,-0.5324,-0.5302,-0.5267,-0.5238,-0.5224,-0.5228,-0.523,-0.5232,-0.523,-0.5212,-0.5213,-0.5206,-0.5206,-0.5206,0,0,-0.5728,-0.5687,-0.5671,-0.5612,-0.5579,-0.5549,-0.5525,-0.5493,-0.547,-0.543,-0.5393,-0.5364,-0.5319,-0.5286,-0.5269,-0.5262,-0.523,-0.5232,-0.5234,-0.5231,-0.5212,-0.5213,-0.5214,-0.5206,-0.5206,-0.5206,0,0,-0.5734,-0.57,-0.5676,-0.5644,-0.5595,-0.5563,-0.5558,-0.5503,-0.5482,-0.5444,-0.5413,-0.5385,-0.5327,-0.5296,-0.5272,-0.5266,-0.5244,-0.5257,-0.5268,-0.5251,-0.5251,-0.5251,-0.5249,-0.5248,-0.5255,-0.5255,-0.5255,0,-0.5755,-0.5707,-0.5666,-0.5636,-0.5611,-0.5572,-0.5547,-0.5519,-0.5462,-0.5446,-0.5438,-0.5364,-0.5331,-0.529,-0.5288,-0.5271,-0.5263,-0.5262,-0.5254,-0.5254,-0.5254,-0.5251,-0.525,-0.5257,-0.5257,-0.5257,-0.5256,0,-0.5735,-0.5702,-0.5688,-0.5633,-0.5606,-0.5579,-0.5535,-0.5513,-0.5489,-0.5459,-0.5421,-0.538,-0.5336,-0.5325,-0.5301,-0.528,-0.5277,-0.5263,-0.525,-0.5257,-0.5253,-0.5252,-0.526,-0.5259,-0.5258,-0.5258,0,0,-0.5765,-0.5688,-0.5683,-0.5658,-0.5601,-0.5575,-0.5547,-0.5503,-0.5485,-0.5448,-0.5422,-0.5374,-0.536,-0.5334,-0.5307,-0.5292,-0.5289,-0.5279,-0.5277,-0.5282,-0.5263,-0.5273,-0.5273,-0.5275,-0.5274,-0.5274,-0.5266,0,-0.5762,-0.5708,-0.567,-0.5631,-0.56,-0.5563,-0.5538,-0.5501,-0.5472,-0.5442,-0.541,-0.5376,-0.536,-0.5344,-0.5328,-0.5293,-0.5285,-0.5293,-0.525,-0.5249,-0.5262,-0.5271,-0.5282,-0.5276,-0.5265,-0.5264,-0.5264,0,-0.5752,-0.5714,-0.5671,-0.5617,-0.5603,-0.5581,-0.5538,-0.551,-0.5467,-0.5447,-0.5417,-0.539,-0.5358,-0.535,-0.5305,-0.5312,-0.5293,-0.5273,-0.5272,-0.5266,-0.5257,-0.5264,-0.5274,-0.5273,-0.5262,-0.5262,-0.5262,0,-0.5777,-0.5716,-0.5682,-0.5662,-0.5598,-0.5584,-0.5557,-0.5514,-0.5491,-0.5453,-0.5437,-0.5398,-0.5376,-0.5346,-0.5308,-0.5305,-0.5268,-0.5256,-0.525,-0.5251,-0.5243,-0.5244,-0.5249,-0.5232,-0.5232,-0.5232,-0.5232,0,-0.5777,-0.5753,-0.5693,-0.5672,-0.5643,-0.5601,-0.5573,-0.5544,-0.5506,-0.5479,-0.5446,-0.5421,-0.5373,-0.5343,-0.5314,-0.5282,-0.5273,-0.5255,-0.5248,-0.5258,-0.526,-0.5244,-0.5243,-0.5232,-0.5232,-0.5232,-0.5232,0,-0.5801,-0.576,-0.5721,-0.5664,-0.5649,-0.563,-0.5582,-0.5561,-0.553,-0.5496,-0.5486,-0.5437,-0.54,-0.536,-0.5309,-0.529,-0.5259,-0.5248,-0.5273,-0.5268,-0.5264,-0.5265,-0.5259,-0.5256,-0.5242,-0.5242,-0.5242,0,-0.5803,-0.5783,-0.5724,-0.5703,-0.5677,-0.5644,-0.5619,-0.5577,-0.5553,-0.5503,-0.5488,-0.5448,-0.5414,-0.5356,-0.5317,-0.5278,-0.5266,-0.5266,-0.526,-0.5271,-0.5265,-0.5266,-0.5264,-0.5268,-0.5269,-0.5269,-0.5269,0,-0.5812,-0.5792,-0.5758,-0.5716,-0.5687,-0.5652,-0.5616,-0.5601,-0.5552,-0.5527,-0.5488,-0.5461,-0.541,-0.5371,-0.5327,-0.53,-0.5277,-0.5272,-0.5268,-0.5278,-0.5292,-0.5284,-0.5278,-0.5272,-0.5272,-0.5271,-0.5271,-0.5271,-0.5824,-0.5804,-0.5759,-0.5721,-0.569,-0.5657,-0.5634,-0.56,-0.5566,-0.552,-0.5498,-0.5459,-0.5417,-0.5356,-0.533,-0.5299,-0.5292,-0.5287,-0.5286,-0.5285,-0.5287,-0.5298,-0.5291,-0.5291,-0.5291,-0.5291,-0.5291,0,-0.583,-0.5799,-0.5765,-0.5715,-0.5686,-0.5665,-0.5625,-0.5601,-0.5567,-0.553,-0.5497,-0.5452,-0.5414,-0.5372,-0.5332,-0.5315,-0.5304,-0.5306,-0.5306,-0.5301,-0.5296,-0.5303,-0.5316,-0.5316,-0.5316,-0.5316,-0.5316,-0.5316,-0.583,-0.5795,-0.577,-0.5719,-0.5688,-0.5649,-0.5628,-0.5597,-0.5567,-0.5518,-0.5486,-0.5459,-0.5419,-0.5376,-0.534,-0.5329,-0.5315,-0.5321,-0.5306,-0.5303,-0.5301,-0.5299,-0.5305,-0.5318,-0.5318,-0.5313,-0.5313,-0.5313]},{"header":{"parameterUnit":"m.s-1","parameterCategory":1,"la1":30.2991,"la2":30.254,"lo1":-89.0895,"lo2":-89.0444,"dy":0.0017,"dx":0.0017,"nx":28,"ny":28,"refTime":"2025-04-12T09:00:00:Z","depth":0,"parameterNumber":3,"parameterNumberName":"V-component_of_WINDS"},"data":[0,0,0,0,0,0,0,0,0,0,0,0,0,0,0,0,0,0,0,0,0,0,0,0,0,0,0,0,0,0,0,0,0,0,0,0,0,0,0,0,0,0,0,0,0,0,0,0,0,0,0,0,0,0,0,0,0,0,4.8778,4.8778,0,4.8749,4.8748,4.8748,4.8719,4.8719,4.8718,4.8718,4.8684,4.8684,4.8683,0,0,0,0,0,0,0,0,0,0,0,0,0,4.8809,4.8809,4.8779,4.8778,4.8778,4.8749,4.8748,4.8748,4.8719,4.8719,4.8718,4.8718,4.8685,4.8684,4.8683,0,0,0,0,0,0,0,0,0,0,0,0,0,4.8789,4.8808,4.8779,4.876,4.8758,4.8749,4.8748,4.8748,4.8719,4.8719,4.8718,4.8718,4.8685,4.8684,4.8683,4.8689,0,0,4.8681,4.868,0,0,0,0,0,0,0,0,4.879,4.8788,4.8763,4.8761,4.8759,4.8737,4.8747,4.8728,4.8719,4.8734,4.8718,4.8717,4.8702,4.87,4.8695,4.8687,4.8686,4.8681,4.868,4.868,4.868,0,0,0,0,0,0,0,4.8792,4.8789,4.8767,4.8763,4.876,4.8753,4.8749,4.8743,4.8721,4.8733,4.873,4.8727,4.8701,4.8696,4.8694,4.8685,4.8681,4.868,4.8679,4.8679,4.8681,4.8682,0,0,0,0,0,0,4.8796,4.879,4.8767,4.8766,4.8774,4.8752,4.8749,4.8745,4.8721,4.8717,4.8728,4.8726,4.8698,4.8695,4.8693,4.8699,4.868,4.8679,4.8679,4.8681,4.8682,4.8682,0,0,0,0,0,0,4.8797,4.8794,4.8769,4.8777,4.8774,4.8753,4.8748,4.8744,4.874,4.8718,4.8714,4.8727,4.8697,4.8694,4.8691,4.8697,4.8679,4.8678,4.868,4.8681,4.8682,4.871,0,0,0,0,0,0,4.8798,4.8795,4.8797,4.8778,4.8773,4.8767,4.8749,4.8744,4.8739,4.8736,4.8716,4.8712,4.8697,4.8692,4.869,4.8696,4.8677,4.868,4.8681,4.8682,4.8709,4.8712,4.8715,0,0,0,0,0,4.8799,4.8806,4.8797,4.8795,4.8776,4.8768,4.8765,4.8748,4.8739,4.8741,4.8727,4.8713,4.8697,4.8692,4.8689,4.8695,4.8679,4.868,4.8682,4.8707,4.8711,4.8715,0,0,0,0,0,0,4.8825,4.8803,4.8793,4.8794,4.8783,4.8763,4.8765,4.8753,4.8744,4.8741,4.872,4.8715,4.8714,4.8704,4.8699,4.87,4.8686,4.8687,4.8707,4.871,4.8713,4.8716,4.8677,0,0,0,0,0,4.8831,4.8827,4.8807,4.881,4.8805,4.8786,4.8782,4.877,4.8757,4.8752,4.8738,4.8726,4.8718,4.8714,4.8705,4.8707,4.8702,4.871,4.8713,4.8716,4.8717,4.8717,4.8721,4.8686,4.8686,4.8686,0,0,4.8843,4.883,4.8829,4.8815,4.8805,4.8801,4.8782,4.8779,4.8775,4.8751,4.8748,4.8737,4.8722,4.8721,4.872,4.8713,4.8725,4.8717,4.872,4.8719,4.8719,4.8722,4.8725,4.8687,4.8687,4.8687,0,0,4.8863,4.8853,4.8854,4.8845,4.8831,4.8819,4.8819,4.8801,4.8793,4.879,4.8772,4.8767,4.8754,4.8745,4.8738,4.8756,4.8742,4.8753,4.877,4.8771,4.8773,4.8776,4.8783,4.8785,4.8754,4.8754,4.8754,0,4.8879,4.8873,4.8856,4.8854,4.8848,4.8828,4.8829,4.8821,4.8804,4.8801,4.8793,4.8777,4.8765,4.8763,4.8767,4.8762,4.8762,4.8755,4.8775,4.8777,4.8779,4.8785,4.8787,4.8756,4.8756,4.8756,4.8755,0,4.8895,4.8891,4.8893,4.888,4.8874,4.8874,4.8856,4.8852,4.8841,4.8829,4.8826,4.8811,4.88,4.8799,4.8787,4.8794,4.879,4.8779,4.8765,4.8784,4.8789,4.8791,4.8758,4.8758,4.8757,4.8757,0,0,4.893,4.8907,4.8909,4.8902,4.8886,4.8882,4.8881,4.8871,4.8869,4.8858,4.8856,4.8847,4.8836,4.8829,4.8816,4.8817,4.8833,4.8805,4.8804,4.8811,4.8841,4.885,4.8853,4.8824,4.8824,4.8824,4.8842,0,4.8947,4.8945,4.8929,4.8931,4.8927,4.8908,4.8907,4.8896,4.8885,4.888,4.8868,4.8862,4.8848,4.8844,4.8844,4.8831,4.8838,4.8829,4.8821,4.8821,4.8826,4.8856,4.8865,4.8883,4.8844,4.8844,4.8845,0,4.8967,4.896,4.8961,4.8945,4.8943,4.8943,4.8933,4.8928,4.8916,4.8908,4.8901,4.8887,4.8884,4.8871,4.8866,4.8861,4.8857,4.885,4.885,4.8849,4.8834,4.8856,4.8888,4.8891,4.8848,4.8848,4.8847,0,4.8994,4.8983,4.8983,4.8978,4.896,4.896,4.8952,4.8939,4.8935,4.8926,4.8923,4.8913,4.8908,4.8901,4.8885,4.8877,4.8883,4.8868,4.8876,4.8877,4.8878,4.8878,4.8911,4.8875,4.8875,4.8875,4.8875,0,4.9015,4.9017,4.8995,4.8995,4.8996,4.8979,4.898,4.8971,4.896,4.8957,4.8939,4.8937,4.8916,4.8911,4.8898,4.8897,4.8894,4.8888,4.8885,4.889,4.8891,4.8887,4.8885,4.8876,4.8876,4.8876,4.8875,0,4.9045,4.903,4.9029,4.9012,4.9008,4.901,4.8995,4.8994,4.8982,4.8979,4.8978,4.8959,4.8953,4.8936,4.8925,4.8916,4.8919,4.8912,4.8923,4.8921,4.8931,4.893,4.8962,4.8965,4.8927,4.8928,4.8928,0,4.9059,4.9061,4.9044,4.9042,4.9035,4.9031,4.9027,4.9009,4.9006,4.8992,4.8993,4.8986,4.8979,4.8969,4.8955,4.8946,4.894,4.8951,4.8938,4.8944,4.894,4.8941,4.8941,4.8954,4.8955,4.8955,4.8955,0,4.9088,4.9081,4.9075,4.9068,4.9064,4.9057,4.9048,4.9047,4.9028,4.9024,4.9018,4.9013,4.9002,4.8995,4.8985,4.8976,4.8963,4.896,4.8961,4.8967,4.8974,4.8971,4.8932,4.8959,4.8959,4.8958,4.8958,4.8958,4.9111,4.9111,4.91,4.9095,4.9087,4.9081,4.9079,4.9068,4.9063,4.9054,4.9044,4.9039,4.9027,4.9012,4.9004,4.9,4.8993,4.8995,4.8995,4.8996,4.8999,4.8974,4.8998,4.8998,4.8997,4.8997,4.8997,0,4.9138,4.9131,4.9126,4.9116,4.9112,4.9101,4.9092,4.9089,4.9085,4.9076,4.907,4.9063,4.9057,4.9042,4.9034,4.9033,4.9027,4.9032,4.9032,4.903,4.9005,4.9005,4.9037,4.9037,4.9037,4.9037,4.9037,4.9037,4.9153,4.9153,4.9145,4.9142,4.9133,4.9129,4.9125,4.9119,4.9111,4.9105,4.91,4.9091,4.9079,4.907,4.9063,4.9059,4.9057,4.9064,4.9058,4.9035,4.9031,4.9028,4.9028,4.9063,4.9064,4.9083,4.9083,4.9083]}]]